Appleton, MN

8:23 PM CDT on September 27, 2016 (GMT -0500)
Appleton Municipal

Weather History for KAQP - January, 2013

Change the Weather History Date:

Thursday, January 24, 2013

  Actual Average Record
Temperature  
Mean Temperature 3 °F -  
Max Temperature 15 °F 17 °F 37 °F (2014)
Min Temperature -9 °F 2 °F -20 °F (2009)
Degree Days  
Heating Degree Days 62    
Moisture  
Dew Point -7 °F    
Average Humidity 66    
Maximum Humidity 73    
Minimum Humidity 60    
Precipitation  
Precipitation 0.00 in - - ()
Sea Level Pressure  
Sea Level Pressure 30.39 in    
Wind  
Wind Speed 8 mph (SE)    
Max Wind Speed 18 mph    
Max Gust Speed 25 mph    
Visibility 10 miles    
Events      
Averages and records for this station are not official NWS values.
T = Trace of Precipitation, MM = Missing Value Source: NWS Daily Summary

Daily Weather History Graph

Daily Weather History Graph

Search for Another Location

Airport or City:

Trip Planner

Search our weather history database for the weather conditions in past years. The results will help you decide how hot, cold, wet, or windy it might be!

Date:

Astronomy

Jan. 24, 2013 Rise Set
Actual Time 7:52 AM CST 5:20 PM CST
Civil Twilight 7:20 AM CST 5:52 PM CST
Nautical Twilight 6:44 AM CST 6:28 PM CST
Astronomical Twilight 6:09 AM CST 7:03 PM CST
Moon 3:22 PM CST (1/24) 5:52 AM CST (1/24)
Length of Visible Light 10h 32m
Length of Day
9h 28m
Waxing Gibbous, 94% of the Moon is Illuminated
Jan 24
Waxing Gibbous
Jan 26
Full
Feb 3
Last Quarter
Feb 10
New
Feb 17
First Quarter

Hourly Weather History & Observations

Time (CST) Temp. Windchill Dew Point Humidity Pressure Visibility Wind Dir Wind Speed Gust Speed Precip Events Conditions
12:13 AM -9.4 °F -22.7 °F -18.4 °F 65% 30.62 in 10.0 mi North 5.8 mph - N/A   Clear
12:33 AM -9.4 °F -20.9 °F -18.4 °F 65% 30.63 in 10.0 mi NNW 4.6 mph - N/A   Clear
12:53 AM -9.4 °F -20.9 °F -16.6 °F 71% 30.61 in 10.0 mi North 4.6 mph - N/A   Clear
1:14 AM -9.4 °F -20.9 °F -16.6 °F 71% 30.62 in 10.0 mi North 4.6 mph - N/A   Clear
1:33 AM -9.4 °F -18.6 °F -16.6 °F 71% 30.63 in 10.0 mi NNW 3.5 mph - N/A   Clear
1:53 AM -9.4 °F -22.7 °F -16.6 °F 71% 30.62 in 10.0 mi North 5.8 mph - N/A   Clear
2:13 AM -9.4 °F -18.6 °F -16.6 °F 71% 30.63 in 10.0 mi North 3.5 mph - N/A   Clear
2:34 AM -7.6 °F - -16.6 °F 65% 30.65 in 10.0 mi Calm Calm - N/A   Clear
2:53 AM -7.6 °F - -16.6 °F 65% 30.64 in 10.0 mi Calm Calm - N/A   Clear
3:13 AM -7.6 °F - -16.6 °F 65% 30.63 in 10.0 mi Calm Calm - N/A   Clear
3:33 AM -7.6 °F -16.5 °F -16.6 °F 65% 30.63 in 10.0 mi NE 3.5 mph - N/A   Clear
3:53 AM -7.6 °F -20.6 °F -16.6 °F 65% 30.60 in 10.0 mi ENE 5.8 mph - N/A   Clear
4:13 AM -7.6 °F - -14.8 °F 71% 30.61 in 10.0 mi Calm Calm - N/A   Clear
4:33 AM -7.6 °F -20.6 °F -14.8 °F 71% 30.59 in 10.0 mi East 5.8 mph - N/A   Clear
4:53 AM -5.8 °F -19.9 °F -16.6 °F 60% 30.60 in 10.0 mi ESE 6.9 mph - N/A   Clear
5:14 AM -5.8 °F -21.2 °F -14.8 °F 65% 30.59 in 10.0 mi ESE 8.1 mph - N/A   Clear
5:33 AM -5.8 °F -19.9 °F -14.8 °F 65% 30.58 in 10.0 mi ESE 6.9 mph - N/A   Clear
5:53 AM -5.8 °F -18.4 °F -14.8 °F 65% 30.61 in 10.0 mi SSE 5.8 mph - N/A   Clear
6:14 AM -5.8 °F -19.9 °F -14.8 °F 65% 30.61 in 10.0 mi SE 6.9 mph - N/A   Mostly Cloudy
6:33 AM -5.8 °F -18.4 °F -14.8 °F 65% 30.61 in 10.0 mi SE 5.8 mph - N/A   Scattered Clouds
6:53 AM -5.8 °F -18.4 °F -14.8 °F 65% 30.61 in 10.0 mi SSE 5.8 mph - N/A   Clear
7:14 AM -5.8 °F -16.7 °F -14.8 °F 65% 30.60 in 10.0 mi SE 4.6 mph - N/A   Clear
7:34 AM -5.8 °F -21.2 °F -13.0 °F 71% 30.58 in 10.0 mi SE 8.1 mph - N/A   Clear
7:53 AM -5.8 °F -23.4 °F -13.0 °F 71% 30.54 in 10.0 mi SE 10.4 mph - N/A   Clear
8:13 AM -4.0 °F -22.1 °F -13.0 °F 65% 30.53 in 10.0 mi SE 11.5 mph - N/A   Clear
8:34 AM -4.0 °F -23.0 °F -13.0 °F 65% 30.52 in 10.0 mi SE 12.7 mph - N/A   Clear
8:53 AM -2.2 °F -19.9 °F -13.0 °F 60% 30.53 in 10.0 mi SE 11.5 mph 16.1 mph N/A   Clear
9:13 AM -2.2 °F -20.7 °F -11.2 °F 66% 30.51 in 10.0 mi SE 12.7 mph - N/A   Scattered Clouds
9:33 AM -2.2 °F -21.5 °F -11.2 °F 66% 30.51 in 10.0 mi SE 13.8 mph - N/A   Scattered Clouds
9:53 AM -2.2 °F -20.7 °F -11.2 °F 66% 30.51 in 10.0 mi SE 12.7 mph - N/A   Clear
10:13 AM -0.4 °F -19.9 °F -9.4 °F 66% 30.51 in 10.0 mi SE 15.0 mph - N/A   Clear
10:33 AM -0.4 °F -17.6 °F -9.4 °F 66% 30.51 in 10.0 mi SSE 11.5 mph - N/A   Clear
10:53 AM -0.4 °F -18.4 °F -9.4 °F 66% 30.50 in 10.0 mi SSE 12.7 mph - N/A   Clear
11:13 AM -0.4 °F -19.9 °F -9.4 °F 66% 30.48 in 10.0 mi SSE 15.0 mph - N/A   Clear
11:33 AM 1.4 °F -17.6 °F -9.4 °F 61% 30.47 in 10.0 mi SSE 15.0 mph 19.6 mph N/A   Clear
11:54 AM 1.4 °F -16.9 °F -7.6 °F 66% 30.44 in 10.0 mi SE 13.8 mph 20.7 mph N/A   Clear
12:13 PM 1.4 °F -16.9 °F -7.6 °F 66% 30.43 in 10.0 mi SE 13.8 mph - N/A   Clear
12:34 PM 3.2 °F -13.1 °F -7.6 °F 61% 30.42 in 10.0 mi SSE 11.5 mph - N/A   Clear
12:54 PM 3.2 °F -13.1 °F -5.8 °F 66% 30.41 in 10.0 mi SE 11.5 mph - N/A   Clear
1:13 PM 3.2 °F -13.9 °F -5.8 °F 66% 30.39 in 10.0 mi SE 12.7 mph 18.4 mph N/A   Clear
1:34 PM 5.0 °F -13.6 °F -5.8 °F 61% 30.36 in 10.0 mi SE 16.1 mph 21.9 mph N/A   Clear
1:53 PM 5.0 °F -13.0 °F -4.0 °F 66% 30.33 in 10.0 mi SSE 15.0 mph 20.7 mph N/A   Clear
2:13 PM 6.8 °F -9.3 °F -4.0 °F 61% 30.32 in 10.0 mi SE 12.7 mph 21.9 mph N/A   Clear
2:33 PM 6.8 °F -11.3 °F -2.2 °F 67% 30.31 in 10.0 mi SE 16.1 mph 20.7 mph N/A   Clear
2:53 PM 6.8 °F -9.3 °F -2.2 °F 67% 30.30 in 10.0 mi SE 12.7 mph - N/A   Clear
3:14 PM 6.8 °F -11.8 °F -2.2 °F 67% 30.27 in 10.0 mi SE 17.3 mph 21.9 mph N/A   Clear
3:34 PM 8.6 °F -7.7 °F -0.4 °F 67% 30.27 in 10.0 mi SE 13.8 mph 23.0 mph N/A   Scattered Clouds
3:54 PM 8.6 °F -8.9 °F -0.4 °F 67% 30.25 in 10.0 mi SE 16.1 mph 20.7 mph N/A   Scattered Clouds
4:13 PM 8.6 °F -8.3 °F -0.4 °F 67% 30.23 in 10.0 mi SE 15.0 mph - N/A   Clear
4:33 PM 10.4 °F -4.8 °F -0.4 °F 62% 30.24 in 10.0 mi SE 12.7 mph - N/A   Mostly Cloudy
4:53 PM 10.4 °F -4.8 °F -0.4 °F 62% 30.23 in 10.0 mi SE 12.7 mph 17.3 mph N/A   Overcast
5:13 PM 10.4 °F -5.4 °F -0.4 °F 62% 30.20 in 10.0 mi SE 13.8 mph 19.6 mph N/A   Overcast
5:33 PM 10.4 °F -7.2 °F -0.4 °F 62% 30.18 in 10.0 mi SE 17.3 mph - N/A   Scattered Clouds
5:53 PM 10.4 °F -7.2 °F -0.4 °F 62% 30.16 in 10.0 mi SE 17.3 mph 24.2 mph N/A   Clear
6:13 PM 12.2 °F -4.3 °F 1.4 °F 62% 30.16 in 10.0 mi SSE 16.1 mph 24.2 mph N/A   Mostly Cloudy
6:33 PM 12.2 °F -5.3 °F 1.4 °F 62% 30.16 in 10.0 mi SSE 18.4 mph 25.3 mph N/A   Mostly Cloudy
6:53 PM 12.2 °F -3.7 °F 1.4 °F 62% 30.14 in 10.0 mi SSE 15.0 mph 21.9 mph N/A   Mostly Cloudy
7:13 PM 12.2 °F -1.0 °F 3.2 °F 67% 30.15 in 10.0 mi South 10.4 mph - N/A   Scattered Clouds
7:33 PM 12.2 °F -3.1 °F 3.2 °F 67% 30.13 in 10.0 mi South 13.8 mph 25.3 mph N/A   Mostly Cloudy
7:55 PM 12.2 °F -3.1 °F 3.2 °F 67% 30.12 in 10.0 mi South 13.8 mph 23.0 mph N/A   Scattered Clouds
8:13 PM 12.2 °F -2.5 °F 3.2 °F 67% 30.13 in 10.0 mi South 12.7 mph 23.0 mph N/A   Clear
8:33 PM 12.2 °F -1.0 °F 3.2 °F 67% 30.13 in 10.0 mi South 10.4 mph 17.3 mph N/A   Mostly Cloudy
8:53 PM 14.0 °F 2.0 °F 5.0 °F 67% 30.15 in 10.0 mi South 9.2 mph - N/A   Mostly Cloudy
9:13 PM 14.0 °F 1.2 °F 5.0 °F 67% 30.13 in 10.0 mi South 10.4 mph - N/A   Mostly Cloudy
9:33 PM 14.0 °F 2.0 °F 5.0 °F 67% 30.12 in 10.0 mi South 9.2 mph - N/A   Overcast
9:53 PM 14.0 °F 2.9 °F 6.8 °F 73% 30.13 in 10.0 mi South 8.1 mph - N/A   Overcast
10:13 PM 15.8 °F 2.7 °F 6.8 °F 68% 30.09 in 10.0 mi South 11.5 mph 17.3 mph N/A   Overcast
10:33 PM 15.8 °F 3.4 °F 6.8 °F 68% 30.08 in 10.0 mi South 10.4 mph 17.3 mph N/A   Overcast
10:54 PM 14.0 °F 2.0 °F 6.8 °F 73% 30.08 in 10.0 mi South 9.2 mph - N/A   Scattered Clouds
11:13 PM 14.0 °F 2.0 °F 6.8 °F 73% 30.07 in 10.0 mi South 9.2 mph - N/A   Clear
11:33 PM 14.0 °F 1.2 °F 6.8 °F 73% 30.07 in 10.0 mi South 10.4 mph - N/A   Mostly Cloudy
11:53 PM 14.0 °F 2.0 °F 6.8 °F 73% 30.06 in 10.0 mi South 9.2 mph - N/A   Mostly Cloudy